Location: Alfortville
(48.8058°N, 2.4204°E)
Time: 04:48:22
(UTC+00:00)

USA 229 DEB - Pass Details

Date: 01 June 2022
Orbit: 934 x 1278 km, 63.4° (Epoch: 24 May)

Event Time Altitude Azimuth Distance (km) Brightness Sun altitude
Rises 00:13:21 0° 314° (NW) 4,002 7.3 -18.9°
Reaches altitude 10° 00:16:17 10° 305° (NW) 3,089 6.5 -18.9°
Maximum altitude 00:22:39 32° 246° (WSW) 1,976 4.8 -18.7°
Enters shadow 00:25:26 25° 212° (SSW) 2,265 4.9 -18.7°
